Santuari del Coll - Susqueda





Hora UTC 09:15
Temperatura 9.2 ºC
Humitat 61.0 %
Pressió 1017.1 hPa
Pluja 0.0 mm
Velocitat vent 16.1 km/h
Direcció vent ESE

Dades diàries 2021-04-19



Hora UTC (hivern +1h; estiu +2h)
Temperatura (ºC) Humitat (%) Pressió (hPa) Velocitat vent (km/h) Precipitació (mm)
Hora UTC Aire Humitat Pressió Vel. Dir. Vel. Max Dir. Intent. màx 5 min.
00:05 3.6 77.0 1018.4 3.2 SW 3.2 0.0
00:10 3.6 77.0 1018.4 1.6 WSW 8.0 0.0
00:15 3.7 77.0 1018.3 1.6 WSW 4.8 0.0
00:20 3.7 76.0 1018.3 3.2 WSW 6.4 0.0
00:25 3.7 76.0 1018.2 1.6 SW 6.4 0.0
00:30 3.7 76.0 1018.2 3.2 WSW 6.4 0.0
00:35 3.7 76.0 1018.1 1.6 WSW 4.8 0.0
00:40 3.8 76.0 1018.1 3.2 WSW 4.8 0.0
00:45 3.8 75.0 1018.0 3.2 WSW 4.8 0.0
00:50 3.8 75.0 1017.9 1.6 SW 4.8 0.0
00:55 3.9 75.0 1017.9 1.6 SW 4.8 0.0
01:00 3.9 74.0 1017.7 3.2 SW 4.8 0.0
01:05 3.9 74.0 1017.7 1.6 SW 4.8 0.0
01:10 3.9 74.0 1017.8 1.6 SW 4.8 0.0
01:15 3.8 74.0 1017.8 0.0 SW 4.8 0.0
01:20 3.8 74.0 1017.7 0.0 SW 3.2 0.0
01:25 3.8 74.0 1017.7 0.0 SW 1.6 0.0
01:30 3.8 74.0 1017.6 0.0 SW 0.0 0.0
01:35 3.8 74.0 1017.6 0.0 SW 3.2 0.0
01:40 3.8 74.0 1017.6 1.6 SW 4.8 0.0
01:45 3.8 74.0 1017.5 4.8 W 4.8 0.0
01:50 3.8 75.0 1017.5 3.2 W 6.4 0.0
01:55 3.8 74.0 1017.5 3.2 W 6.4 0.0
02:00 3.8 74.0 1017.5 3.2 W 4.8 0.0
02:05 3.8 74.0 1017.5 1.6 WSW 9.7 0.0
02:10 3.7 75.0 1017.5 4.8 W 9.7 0.0
02:15 3.7 75.0 1017.6 1.6 SW 8.0 0.0
02:20 3.7 74.0 1017.5 1.6 WSW 6.4 0.0
02:25 3.8 74.0 1017.6 0.0 SSW 9.7 0.0
02:30 3.8 73.0 1017.5 0.0 SSW 9.7 0.0
02:35 3.8 73.0 1017.5 1.6 WSW 4.8 0.0
02:40 3.7 73.0 1017.5 1.6 WSW 4.8 0.0
02:45 3.7 73.0 1017.4 0.0 WSW 3.2 0.0
02:50 3.7 73.0 1017.4 0.0 SW 3.2 0.0
02:55 3.8 73.0 1017.4 0.0 SW 3.2 0.0
03:00 3.7 73.0 1017.4 1.6 W 3.2 0.0
03:05 3.6 74.0 1017.2 1.6 W 3.2 0.0
03:10 3.6 73.0 1017.2 1.6 W 3.2 0.0
03:15 3.6 73.0 1017.2 0.0 W 3.2 0.0
03:20 3.6 74.0 1017.2 1.6 W 3.2 0.0
03:25 3.6 74.0 1017.1 1.6 W 3.2 0.0
03:30 3.6 74.0 1017.0 3.2 W 4.8 0.0
03:35 3.6 74.0 1017.0 1.6 W 4.8 0.0
03:40 3.7 74.0 1016.9 1.6 W 4.8 0.0
03:45 3.6 74.0 1016.9 1.6 W 4.8 0.0
03:50 3.6 73.0 1016.8 3.2 W 3.2 0.0
03:55 3.6 73.0 1016.8 1.6 W 3.2 0.0
04:00 3.7 73.0 1016.8 1.6 W 4.8 0.0
04:05 3.6 73.0 1016.7 3.2 W 4.8 0.0
04:10 3.6 73.0 1016.7 3.2 W 4.8 0.0
04:15 3.6 73.0 1016.7 3.2 W 4.8 0.0
04:20 3.6 73.0 1016.7 3.2 W 4.8 0.0
04:25 3.6 73.0 1016.7 3.2 W 4.8 0.0
04:30 3.5 73.0 1016.8 0.0 W 3.2 0.0
04:35 3.6 73.0 1016.7 1.6 W 3.2 0.0
04:40 3.6 73.0 1016.7 0.0 NE 4.8 0.0
04:45 3.7 72.0 1016.7 0.0 NE 4.8 0.0
04:50 3.8 72.0 1016.7 0.0 NE 1.6 0.0
04:55 3.8 72.0 1016.7 0.0 NE 1.6 0.0
05:00 3.6 73.0 1016.7 1.6 NE 1.6 0.0
05:05 3.6 74.0 1016.8 1.6 ENE 4.8 0.0
05:10 3.7 73.0 1016.8 4.8 ENE 6.4 0.0
05:15 3.8 73.0 1016.8 3.2 E 9.7 0.0
05:20 3.9 72.0 1016.8 4.8 E 6.4 0.0
05:25 4.1 72.0 1016.8 8.0 E 9.7 0.0
05:30 4.2 73.0 1016.8 4.8 ENE 8.0 0.0
05:35 4.3 72.0 1016.8 6.4 E 14.5 0.0
05:40 4.3 72.0 1016.9 9.7 E 14.5 0.0
05:45 4.2 72.0 1017.1 9.7 ENE 19.3 0.0
05:50 4.5 71.0 1017.0 6.4 E 19.3 0.0
05:55 4.8 71.0 1016.9 11.3 ESE 22.5 0.0
06:00 5.2 70.0 1017.1 12.9 E 17.7 0.0
06:05 5.4 69.0 1017.0 11.3 E 20.9 0.0
06:10 5.4 69.0 1017.1 14.5 E 24.1 0.0
06:15 5.1 70.0 1017.1 11.3 ESE 24.1 0.0
06:20 4.8 71.0 1017.1 16.1 ESE 22.5 0.0
06:25 4.7 72.0 1017.1 14.5 SE 22.5 0.0
06:30 5.1 74.0 1017.1 12.9 ESE 19.3 0.0
06:35 5.4 72.0 1017.1 16.1 ESE 17.7 0.0
06:40 5.7 71.0 1017.0 11.3 ESE 20.9 0.0
06:45 5.9 70.0 1017.2 6.4 ESE 20.9 0.0
06:50 6.1 69.0 1017.2 9.7 ESE 20.9 0.0
06:55 6.2 69.0 1017.2 12.9 ESE 20.9 0.0
07:00 6.3 69.0 1017.2 11.3 SSE 22.5 0.0
07:05 6.7 70.0 1017.1 12.9 ESE 22.5 0.0
07:10 6.8 68.0 1017.1 6.4 ESE 20.9 0.0
07:15 7.2 69.0 1017.2 6.4 SE 20.9 0.0
07:20 7.3 67.0 1017.2 14.5 ESE 19.3 0.0
07:25 7.5 67.0 1017.1 8.0 ESE 19.3 0.0
07:30 7.8 67.0 1017.2 16.1 E 17.7 0.0
07:35 8.0 66.0 1017.1 14.5 ESE 19.3 0.0
07:40 7.9 65.0 1017.1 11.3 E 19.3 0.0
07:45 7.8 64.0 1017.0 12.9 E 19.3 0.0
07:50 7.9 65.0 1017.2 12.9 E 19.3 0.0
07:55 8.1 65.0 1017.0 14.5 ESE 19.3 0.0
08:00 8.4 65.0 1017.1 11.3 ESE 19.3 0.0
08:05 8.6 65.0 1017.0 11.3 ESE 20.9 0.0
08:10 8.8 64.0 1017.0 9.7 E 25.7 0.0
08:15 8.9 62.0 1016.9 6.4 E 20.9 0.0
08:20 8.9 63.0 1017.0 19.3 ESE 22.5 0.0
08:25 9.1 61.0 1016.9 12.9 E 25.7 0.0
08:30 9.1 61.0 1017.0 11.3 E 25.7 0.0
08:35 9.3 63.0 1017.0 16.1 E 24.1 0.0
08:40 9.3 60.0 1017.0 17.7 E 22.5 0.0
08:45 9.2 60.0 1017.0 12.9 E 22.5 0.0
08:50 9.1 61.0 1017.0 16.1 E 22.5 0.0
08:55 9.4 61.0 1017.0 12.9 E 22.5 0.0
09:00 9.4 60.0 1017.0 6.4 SE 20.9 0.0
09:05 9.2 60.0 1017.0 6.4 ESE 22.5 0.0
09:10 9.3 61.0 1016.9 16.1 E 20.9 0.0
09:15 9.2 61.0 1017.1 16.1 ESE 22.5 0.0
Màxima 9.4 77.0 1018.4 19.3 ESE 25.7 0.0
Mínima 3.5 60.0 1016.7
Total 0.0